Regional Weather Roundup
Issued by NWS

Home | Current Version | Previous Version | Graphics & Text | Print | Product List | Glossary On
Versions: 1 2 3 4 5 6 7 8 9 10 11 12 13 14 15 16 17 18 19 20 21 22 23 24 25 26 27 28 29 30 31 32 33 34 35 36 37 38 39 40 41 42 43 44 45 46 47 48 49 50
000
ASUS43 KMKX 241621
RWRWI

WISCONSIN REGIONAL WEATHER ROUNDUP
NATIONAL WEATHER SERVICE MILWAUKEE/SULLIVAN WI
1100 AM CDT TUE MAY 24 2016

NOTE: "FAIR" INDICATES FEW OR NO CLOUDS BELOW 12,000 FEET WITH NO
SIGNIFICANT WEATHER AND/OR OBSTRUCTIONS TO VISIBILITY.

WIZ001-002-006>008-014>016-023>028-241700-
NORTHWEST WISCONSIN

CITY           SKY/WX    TMP DP  RH WIND       PRES   REMARKS
SUPERIOR ARPT  PTSUNNY   66  60  82 E6        29.86R
ASHLAND        CLOUDY    63  63 100 NE8       29.88R
HAYWARD        CLOUDY    68  61  78 CALM      29.87R
SIREN          CLOUDY    67  62  84 CALM      29.87S
CUMBERLAND     CLOUDY    66  61  82 W7        29.89R
RICE LAKE      CLOUDY    70  61  72 SW3       29.90R
CHETEK         CLOUDY    70  63  79 SW3       29.89R
LADYSMITH      CLOUDY    68  63  82 SW6       29.90S
EAU CLAIRE     PTSUNNY   72  63  73 W9        29.88R
MENOMONIE      CLOUDY    72  71  98 SW3       29.88R
NEW RICHMOND   CLOUDY    75  60  59 NW12      29.87S
OSCEOLA        CLOUDY    73  64  73 N5        29.90R
$$

WIZ003>005-009-010-017-018-241700-
NORTH CENTRAL WISCONSIN

CITY           SKY/WX    TMP DP  RH WIND       PRES   REMARKS
MANITOWISH WTR CLOUDY    68  63  85 SW10      29.89S
ARBOR VITAE    CLOUDY    72  65  79 SW10      29.91R
WOODRUFF       CLOUDY    72  65  79 SW10      29.91R
RHINELANDER    LGT RAIN  68  61  78 SW7       29.92R
EAGLE RIVER    LGT RAIN  67  60  78 S5        29.91S
LAND O LAKES   LGT RAIN  69  62  78 SW3       29.91S
PHILLIPS       CLOUDY    68  63  83 S6        29.89S
TOMAHAWK       LGT RAIN  65  60  85 CALM      29.92R
MEDFORD        CLOUDY    66  60  83 S6        29.91S
MERRILL        CLOUDY    68  61  77 S3        29.92S
$$

WIZ029-030-035-036-043>047-241700-
CENTRAL WISCONSIN

CITY           SKY/WX    TMP DP  RH WIND       PRES   REMARKS
WAUSAU         CLOUDY    72  58  61 S7        29.89S
MOSINEE        MOSUNNY   68  59  73 S6        29.92S
MARSHFIELD     PTSUNNY   71  58  63 S7        29.90S
STEVENS POINT  CLOUDY    71  55  56 W6        29.91F
WAUPACA        PTSUNNY   76  56  48 S6        29.92S
WAUTOMA        PTSUNNY   75  58  55 S6        29.92F
WISC RAPIDS    CLOUDY    71  56  58 SW7       29.93R
CAMP DOUGLAS   PTSUNNY   73  66  78 S7        29.91S
$$

WIZ011>013-019>022-031-037>040-048>050-241700-
NORTHEAST WISCONSIN

CITY           SKY/WX    TMP DP  RH WIND       PRES   REMARKS
ANTIGO         MOSUNNY   69  61  77 SW7       29.93S
SHAWANO        CLOUDY    74  53  48 S6        29.91F
OCONTO         CLOUDY    74  55  50 S9        29.91R
STURGEON BAY   NOT AVBL
GREEN BAY      PTSUNNY   78  54  43 SW10      29.92R
MANITOWOC      SUNNY     80  53  39 SE12      29.93R HX  80
APPLETON       PTSUNNY   73  54  49 VRB6      29.92R
CLINTONVILLE   MOSUNNY   75  52  43 S5        29.91F
OSHKOSH        PTSUNNY   77  57  50 S7        29.91F
$$

WIZ032>034-041-042-053>061-241700-
SOUTHWEST WISCONSIN

CITY           SKY/WX    TMP DP  RH WIND       PRES   REMARKS
LA CROSSE      PTSUNNY   74  59  59 SW9       29.91R
SPARTA         CLOUDY    73  60  63 W7        29.92R
VIROQUA        PTSUNNY   71  58  63 SW7       29.94R
BOSCOBEL       CLOUDY    76  59  55 S7        29.93R
PRAIRIE DU CHI CLOUDY    73  59  61 S3        29.92S
PLATTEVILLE    MOSUNNY   70  61  74 S3        29.95S
$$

WIZ056-057-062-063-064-067-068-241700-
SOUTH CENTRAL WISCONSIN

CITY           SKY/WX    TMP DP  RH WIND       PRES   REMARKS
REEDSBURG      PTSUNNY   75  59  57 SW7       29.92S
BARABOO/DELLS  CLOUDY    73  55  53 SW6       29.93S
LONE ROCK      CLOUDY    73  58  59 S9        29.93S
MINERAL POINT  RAIN      72  57  60 SW6       29.96R
MADISON        PTSUNNY   74  57  55 S12       29.93F
MIDDLETON      CLOUDY    75  57  53 SW9       29.94S
WATERTOWN      SUNNY     78  59  50 S8        29.93F HX  80
MONROE         MOSUNNY   75  57  53 S13       29.95S
JANESVILLE     SUNNY     81  57  44 S14       29.95S HX  81
$$

WIZ051-052-058>065-066-070>072-241700-
SOUTHEAST WISCONSIN

CITY           SKY/WX    TMP DP  RH WIND       PRES   REMARKS
MILWAUKEE      MOSUNNY   79  55  43 S14       29.96S
WAUKESHA       MOSUNNY   75  54  46 S9        29.97S
MILWAUKEE/TIMM PTSUNNY   79  50  36 SW14      29.97R
RACINE         MOSUNNY   80  52  37 SW12      29.98S HX  80
BURLINGTON     SUNNY     80  54  40 S7        29.97S HX  80
KENOSHA        SUNNY     80  56  43 SW13      29.97F HX  80
FOND DU LAC    MOSUNNY   80  57  45 S12       29.92F HX  80
SHEBOYGAN      SUNNY     79  55  43 S14       29.94R
WEST BEND      MOSUNNY   77  54  44 S9        29.94F
JUNEAU         SUNNY     77  58  52 S10       29.94F
$$

LSZ147-162-241700-
LAKE SUPERIOR

STATION/POSITION TIME  TEMP    WIND        PRES    WAVE
                       AIR SEA DIR/SP/G            HT/PER
                 (UTC) (F)     (DEG/KT/KT) (MB)    (FT/S)
W MID LAKE BUOY  1550   54 38  110/  4/  4 1012.6R   0
DEVILS ISLAND    1600   53     110/  9/ 10 1011.3F
PORT WING        1520           90/  4/ 11 1010.8F
SAXON HARBOR     1540   54      60/  3/ 15 1011.2R
$$

LMZ867-665-643>646-241700-
LAKE MICHIGAN

STATION/POSITION TIME  TEMP    WIND        PRES    WAVE
                       AIR SEA DIR/SP/G            HT/PER
                 (UTC) (F)     (DEG/KT/KT) (MB)    (FT/S)
CHAMBERS ISLAND  1500   70     190/  4/  7 1012.9S
N MID LAKE BUOY  1550   47 44  190/ 10/ 12 1013.5R   2/ 4
NORTHPORT PIER   1500   58     150/  7/  8 1012.5S
SISTER BAY       1519           10/  5/  6   N/A
ALGOMA LAKESHORE 1516          200/  6/  7   N/A
KEWAUNEE LAKESHO 1500   53     160/ 10/ 11 1012.5S
SHEBOYGAN LAKESH 1600   66     170/ 18/ 18 1013.9R
PORT WASHINGTON  1500   65     180/  8/  9 1014.9
S MID LAKE BUOY  1550   53 47  170/ 12/ 12 1015.6R   1
KENOSHA   LAKESH 1600   62     170/  9/ 16 1014.9R
$$

TC  - TEMPERATURE IN CELSIUS
VSB - VISIBILITY IN STATUTE MILES
WCI - WIND CHILL INDEX
HX  - HEAT INDEX




USA.gov is the U.S. government's official web portal to all federal, state and local government web resources and services.